Time,TemperatureF,DewpointF,PressureIn,WindDirection,WindDirectionDegrees,WindSpeedMPH,WindSpeedGustMPH,Humidity,HourlyPrecipIn,Conditions,Clouds,dailyrainin,SoftwareType,DateUTC
2013-03-17 00:01:00,33.0,20.0,-100.00,WNW,302,7.0,-999.0,57,0.00,,,-99.99,,2013-03-17 00:01:00,
2013-03-17 00:12:00,33.0,20.0,-100.00,WNW,302,7.0,-999.0,57,0.00,,,-99.99,,2013-03-17 00:12:00,
2013-03-17 00:22:00,33.0,20.0,-100.00,WNW,302,7.0,-999.0,57,0.00,,,-99.99,,2013-03-17 00:22:00,
2013-03-17 00:30:00,37.0,20.0,-100.00,SW,227,4.0,-999.0,49,0.00,,,-99.99,,2013-03-17 00:30:00,
2013-03-17 00:52:00,37.0,20.0,-100.00,SW,227,4.0,-999.0,49,0.00,,,-99.99,,2013-03-17 00:52:00,
2013-03-17 01:02:00,37.0,20.0,-100.00,SW,227,4.0,-999.0,49,0.00,,,-99.99,,2013-03-17 01:02:00,
2013-03-17 01:12:00,37.0,20.0,-100.00,SW,227,4.0,-999.0,49,0.00,,,-99.99,,2013-03-17 01:12:00,
2013-03-17 01:22:00,37.0,20.0,-100.00,SW,227,4.0,-999.0,49,0.00,,,-99.99,,2013-03-17 01:22:00,
2013-03-17 01:30:00,34.0,18.0,-100.00,WSW,257,8.0,-999.0,50,0.00,,,-99.99,,2013-03-17 01:30:00,
2013-03-17 01:53:00,34.0,18.0,-100.00,WSW,257,8.0,-999.0,50,0.00,,,-99.99,,2013-03-17 01:53:00,
2013-03-17 02:02:00,34.0,18.0,-100.00,WSW,257,8.0,-999.0,50,0.00,,,-99.99,,2013-03-17 02:02:00,
2013-03-17 02:12:00,34.0,18.0,-100.00,WSW,257,8.0,-999.0,50,0.00,,,-99.99,,2013-03-17 02:12:00,
2013-03-17 02:22:00,34.0,18.0,-100.00,WSW,257,8.0,-999.0,50,0.00,,,-99.99,,2013-03-17 02:22:00,
2013-03-17 02:30:00,35.0,17.0,-100.00,WSW,254,9.0,-999.0,48,0.00,,,-99.99,,2013-03-17 02:30:00,
2013-03-17 02:52:00,35.0,17.0,-100.00,WSW,254,9.0,-999.0,48,0.00,,,-99.99,,2013-03-17 02:52:00,
2013-03-17 03:02:00,35.0,17.0,-100.00,WSW,254,9.0,-999.0,48,0.00,,,-99.99,,2013-03-17 03:02:00,
2013-03-17 03:12:00,35.0,17.0,-100.00,WSW,254,9.0,-999.0,48,0.00,,,-99.99,,2013-03-17 03:12:00,
2013-03-17 03:22:00,35.0,17.0,-100.00,WSW,254,9.0,-999.0,48,0.00,,,-99.99,,2013-03-17 03:22:00,
2013-03-17 03:30:00,35.0,23.0,-100.00,SW,233,10.0,-999.0,62,0.00,,,-99.99,,2013-03-17 03:30:00,
2013-03-17 03:53:00,35.0,23.0,-100.00,SW,233,10.0,-999.0,62,0.00,,,-99.99,,2013-03-17 03:53:00,
2013-03-17 04:03:00,35.0,23.0,-100.00,SW,233,10.0,-999.0,62,0.00,,,-99.99,,2013-03-17 04:03:00,
2013-03-17 04:12:00,35.0,23.0,-100.00,SW,233,10.0,-999.0,62,0.00,,,-99.99,,2013-03-17 04:12:00,
2013-03-17 04:23:00,35.0,23.0,-100.00,SW,233,10.0,-999.0,62,0.00,,,-99.99,,2013-03-17 04:23:00,
2013-03-17 04:30:00,33.0,22.0,-100.00,WSW,248,11.0,-999.0,64,0.00,,,-99.99,,2013-03-17 04:30:00,
2013-03-17 04:53:00,33.0,22.0,-100.00,WSW,248,11.0,-999.0,64,0.00,,,-99.99,,2013-03-17 04:53:00,
2013-03-17 05:02:00,33.0,22.0,-100.00,WSW,248,11.0,-999.0,64,0.00,,,-99.99,,2013-03-17 05:02:00,
2013-03-17 05:12:00,33.0,22.0,-100.00,WSW,248,11.0,-999.0,64,0.00,,,-99.99,,2013-03-17 05:12:00,
2013-03-17 05:22:00,33.0,22.0,-100.00,WSW,248,11.0,-999.0,64,0.00,,,-99.99,,2013-03-17 05:22:00,
2013-03-17 05:30:00,32.0,22.0,-100.00,SW,228,12.0,-999.0,67,0.00,,,-99.99,,2013-03-17 05:30:00,
2013-03-17 05:52:00,32.0,22.0,-100.00,SW,228,12.0,-999.0,67,0.00,,,-99.99,,2013-03-17 05:52:00,
2013-03-17 06:02:00,32.0,22.0,-100.00,SW,228,12.0,-999.0,67,0.00,,,-99.99,,2013-03-17 06:02:00,
2013-03-17 06:12:00,32.0,22.0,-100.00,SW,228,12.0,-999.0,67,0.00,,,-99.99,,2013-03-17 06:12:00,
2013-03-17 06:22:00,32.0,22.0,-100.00,SW,228,12.0,-999.0,67,0.00,,,-99.99,,2013-03-17 06:22:00,
2013-03-17 06:30:00,31.0,14.0,-100.00,WSW,258,16.0,-999.0,48,0.00,,,-99.99,,2013-03-17 06:30:00,
2013-03-17 06:52:00,31.0,14.0,-100.00,WSW,258,16.0,-999.0,48,0.00,,,-99.99,,2013-03-17 06:52:00,
2013-03-17 07:02:00,31.0,14.0,-100.00,WSW,258,16.0,-999.0,48,0.00,,,-99.99,,2013-03-17 07:02:00,
2013-03-17 07:12:00,31.0,14.0,-100.00,WSW,258,16.0,-999.0,48,0.00,,,-99.99,,2013-03-17 07:12:00,
2013-03-17 07:22:00,31.0,14.0,-100.00,WSW,258,16.0,-999.0,48,0.00,,,-99.99,,2013-03-17 07:22:00,
2013-03-17 07:30:00,31.0,12.0,-100.00,West,266,9.0,-999.0,46,0.00,,,-99.99,,2013-03-17 07:30:00,
2013-03-17 07:52:00,31.0,12.0,-100.00,West,266,9.0,-999.0,46,0.00,,,-99.99,,2013-03-17 07:52:00,
2013-03-17 08:02:00,31.0,12.0,-100.00,West,266,9.0,-999.0,46,0.00,,,-99.99,,2013-03-17 08:02:00,
2013-03-17 08:12:00,31.0,12.0,-100.00,West,266,9.0,-999.0,46,0.00,,,-99.99,,2013-03-17 08:12:00,
2013-03-17 08:22:00,31.0,12.0,-100.00,West,266,9.0,-999.0,46,0.00,,,-99.99,,2013-03-17 08:22:00,
2013-03-17 08:30:00,30.0,12.0,-100.00,WNW,291,6.0,-999.0,47,0.00,,,-99.99,,2013-03-17 08:30:00,
2013-03-17 08:52:00,30.0,12.0,-100.00,WNW,291,6.0,-999.0,47,0.00,,,-99.99,,2013-03-17 08:52:00,
2013-03-17 09:02:00,30.0,12.0,-100.00,WNW,291,6.0,-999.0,47,0.00,,,-99.99,,2013-03-17 09:02:00,
2013-03-17 09:12:00,30.0,12.0,-100.00,WNW,291,6.0,-999.0,47,0.00,,,-99.99,,2013-03-17 09:12:00,
2013-03-17 09:22:00,30.0,12.0,-100.00,WNW,291,6.0,-999.0,47,0.00,,,-99.99,,2013-03-17 09:22:00,
2013-03-17 09:30:00,30.0,16.0,-100.00,NW,306,4.0,-999.0,55,0.00,,,-99.99,,2013-03-17 09:30:00,
2013-03-17 09:53:00,30.0,16.0,-100.00,NW,306,4.0,-999.0,55,0.00,,,-99.99,,2013-03-17 09:53:00,
2013-03-17 10:03:00,30.0,16.0,-100.00,NW,306,4.0,-999.0,55,0.00,,,-99.99,,2013-03-17 10:03:00,
2013-03-17 10:12:00,30.0,16.0,-100.00,NW,306,4.0,-999.0,55,0.00,,,-99.99,,2013-03-17 10:12:00,
2013-03-17 10:23:00,30.0,16.0,-100.00,NW,306,4.0,-999.0,55,0.00,,,-99.99,,2013-03-17 10:23:00,
2013-03-17 10:30:00,29.0,9.0,-100.00,NW,306,3.0,-999.0,42,0.00,,,-99.99,,2013-03-17 10:30:00,
2013-03-17 10:52:00,29.0,9.0,-100.00,NW,306,3.0,-999.0,42,0.00,,,-99.99,,2013-03-17 10:52:00,
2013-03-17 11:02:00,29.0,9.0,-100.00,NW,306,3.0,-999.0,42,0.00,,,-99.99,,2013-03-17 11:02:00,
2013-03-17 11:12:00,29.0,9.0,-100.00,NW,306,3.0,-999.0,42,0.00,,,-99.99,,2013-03-17 11:12:00,
2013-03-17 11:22:00,29.0,9.0,-100.00,NW,306,3.0,-999.0,42,0.00,,,-99.99,,2013-03-17 11:22:00,
2013-03-17 11:30:00,29.0,7.0,-100.00,West,277,4.0,-999.0,40,0.00,,,-99.99,,2013-03-17 11:30:00,
2013-03-17 11:52:00,29.0,7.0,-100.00,West,277,4.0,-999.0,40,0.00,,,-99.99,,2013-03-17 11:52:00,
2013-03-17 12:02:00,29.0,7.0,-100.00,West,277,4.0,-999.0,40,0.00,,,-99.99,,2013-03-17 12:02:00,
2013-03-17 12:12:00,29.0,7.0,-100.00,West,277,4.0,-999.0,40,0.00,,,-99.99,,2013-03-17 12:12:00,
2013-03-17 12:22:00,29.0,7.0,-100.00,West,277,4.0,-999.0,40,0.00,,,-99.99,,2013-03-17 12:22:00,
2013-03-17 12:30:00,29.0,5.0,-100.00,NW,317,8.0,-999.0,35,0.00,,,-99.99,,2013-03-17 12:30:00,
2013-03-17 12:52:00,29.0,5.0,-100.00,NW,317,8.0,-999.0,35,0.00,,,-99.99,,2013-03-17 12:52:00,
2013-03-17 13:02:00,29.0,5.0,-100.00,NW,317,8.0,-999.0,35,0.00,,,-99.99,,2013-03-17 13:02:00,
2013-03-17 13:12:00,29.0,5.0,-100.00,NW,317,8.0,-999.0,35,0.00,,,-99.99,,2013-03-17 13:12:00,
2013-03-17 13:22:00,29.0,5.0,-100.00,NW,317,8.0,-999.0,35,0.00,,,-99.99,,2013-03-17 13:22:00,
2013-03-17 13:30:00,29.0,4.0,-100.00,WNW,292,9.0,-999.0,34,0.00,,,-99.99,,2013-03-17 13:30:00,
2013-03-17 13:52:00,29.0,4.0,-100.00,WNW,292,9.0,-999.0,34,0.00,,,-99.99,,2013-03-17 13:52:00,
2013-03-17 14:02:00,29.0,4.0,-100.00,WNW,292,9.0,-999.0,34,0.00,,,-99.99,,2013-03-17 14:02:00,
2013-03-17 14:12:00,29.0,4.0,-100.00,WNW,292,9.0,-999.0,34,0.00,,,-99.99,,2013-03-17 14:12:00,
2013-03-17 14:22:00,29.0,4.0,-100.00,WNW,292,9.0,-999.0,34,0.00,,,-99.99,,2013-03-17 14:22:00,
2013-03-17 14:30:00,29.0,9.0,-100.00,NW,309,10.0,-999.0,43,0.00,,,-99.99,,2013-03-17 14:30:00,
2013-03-17 14:52:00,29.0,9.0,-100.00,NW,309,10.0,-999.0,43,0.00,,,-99.99,,2013-03-17 14:52:00,
2013-03-17 15:02:00,29.0,9.0,-100.00,NW,309,10.0,-999.0,43,0.00,,,-99.99,,2013-03-17 15:02:00,
2013-03-17 15:12:00,29.0,9.0,-100.00,NW,309,10.0,-999.0,43,0.00,,,-99.99,,2013-03-17 15:12:00,
2013-03-17 15:22:00,29.0,9.0,-100.00,NW,309,10.0,-999.0,43,0.00,,,-99.99,,2013-03-17 15:22:00,
2013-03-17 15:53:00,29.0,16.0,-100.00,NW,324,8.0,-999.0,57,0.00,,,-99.99,,2013-03-17 15:53:00,
2013-03-17 16:12:00,29.0,16.0,-100.00,NW,324,8.0,-999.0,57,0.00,,,-99.99,,2013-03-17 16:12:00,
2013-03-17 16:22:00,29.0,16.0,-100.00,NW,324,8.0,-999.0,57,0.00,,,-99.99,,2013-03-17 16:22:00,
2013-03-17 16:30:00,29.0,12.0,-100.00,NNE,18,7.0,-999.0,49,0.00,,,-99.99,,2013-03-17 16:30:00,
2013-03-17 16:52:00,29.0,12.0,-100.00,NNE,18,7.0,-999.0,49,0.00,,,-99.99,,2013-03-17 16:52:00,
2013-03-17 17:30:00,29.0,17.0,-100.00,NE,38,10.0,-999.0,62,0.00,,,-99.99,,2013-03-17 17:30:00,
2013-03-17 17:53:00,29.0,17.0,-100.00,NE,38,10.0,-999.0,62,0.00,,,-99.99,,2013-03-17 17:53:00,
2013-03-17 18:12:00,29.0,17.0,-100.00,NE,38,10.0,-999.0,62,0.00,,,-99.99,,2013-03-17 18:12:00,
2013-03-17 18:22:00,29.0,17.0,-100.00,NE,38,10.0,-999.0,62,0.00,,,-99.99,,2013-03-17 18:22:00,
2013-03-17 18:30:00,29.0,19.0,-100.00,ENE,76,9.0,-999.0,68,0.00,,,-99.99,,2013-03-17 18:30:00,
2013-03-17 18:52:00,29.0,19.0,-100.00,ENE,76,9.0,-999.0,68,0.00,,,-99.99,,2013-03-17 18:52:00,
2013-03-17 19:02:00,29.0,19.0,-100.00,ENE,76,9.0,-999.0,68,0.00,,,-99.99,,2013-03-17 19:02:00,
2013-03-17 19:12:00,29.0,19.0,-100.00,ENE,76,9.0,-999.0,68,0.00,,,-99.99,,2013-03-17 19:12:00,
2013-03-17 19:22:00,29.0,19.0,-100.00,ENE,76,9.0,-999.0,68,0.00,,,-99.99,,2013-03-17 19:22:00,
2013-03-17 19:30:00,29.0,19.0,-100.00,East,83,7.0,-999.0,66,0.00,,,-99.99,,2013-03-17 19:30:00,
2013-03-17 19:53:00,29.0,19.0,-100.00,East,83,7.0,-999.0,66,0.00,,,-99.99,,2013-03-17 19:53:00,
2013-03-17 20:02:00,29.0,19.0,-100.00,East,83,7.0,-999.0,66,0.00,,,-99.99,,2013-03-17 20:02:00,
2013-03-17 20:12:00,29.0,19.0,-100.00,East,83,7.0,-999.0,66,0.00,,,-99.99,,2013-03-17 20:12:00,
2013-03-17 20:22:00,29.0,19.0,-100.00,East,83,7.0,-999.0,66,0.00,,,-99.99,,2013-03-17 20:22:00,
2013-03-17 20:30:00,31.0,16.0,-100.00,ESE,110,4.0,-999.0,54,0.00,,,-99.99,,2013-03-17 20:30:00,
2013-03-17 20:52:00,31.0,16.0,-100.00,ESE,110,4.0,-999.0,54,0.00,,,-99.99,,2013-03-17 20:52:00,
2013-03-17 21:02:00,31.0,16.0,-100.00,ESE,110,4.0,-999.0,54,0.00,,,-99.99,,2013-03-17 21:02:00,
2013-03-17 21:12:00,31.0,16.0,-100.00,ESE,110,4.0,-999.0,54,0.00,,,-99.99,,2013-03-17 21:12:00,
2013-03-17 21:22:00,31.0,16.0,-100.00,ESE,110,4.0,-999.0,54,0.00,,,-99.99,,2013-03-17 21:22:00,
2013-03-17 21:30:00,33.0,16.0,-100.00,ESE,117,3.0,-999.0,49,0.00,,,-99.99,,2013-03-17 21:30:00,
2013-03-17 21:52:00,33.0,16.0,-100.00,ESE,117,3.0,-999.0,49,0.00,,,-99.99,,2013-03-17 21:52:00,
2013-03-17 22:03:00,33.0,16.0,-100.00,ESE,117,3.0,-999.0,49,0.00,,,-99.99,,2013-03-17 22:03:00,
2013-03-17 22:12:00,33.0,16.0,-100.00,ESE,117,3.0,-999.0,49,0.00,,,-99.99,,2013-03-17 22:12:00,
2013-03-17 22:23:00,33.0,16.0,-100.00,ESE,117,3.0,-999.0,49,0.00,,,-99.99,,2013-03-17 22:23:00,
2013-03-17 22:30:00,33.0,19.0,-100.00,SW,224,3.0,-999.0,55,0.00,,,-99.99,,2013-03-17 22:30:00,
2013-03-17 22:53:00,33.0,19.0,-100.00,SW,224,3.0,-999.0,55,0.00,,,-99.99,,2013-03-17 22:53:00,
2013-03-17 23:02:00,33.0,19.0,-100.00,SW,224,3.0,-999.0,55,0.00,,,-99.99,,2013-03-17 23:02:00,
2013-03-17 23:12:00,33.0,19.0,-100.00,SW,224,3.0,-999.0,55,0.00,,,-99.99,,2013-03-17 23:12:00,
2013-03-17 23:22:00,33.0,19.0,-100.00,SW,224,3.0,-999.0,55,0.00,,,-99.99,,2013-03-17 23:22:00,
2013-03-17 23:30:00,35.0,21.0,-100.00,SW,226,4.0,-999.0,56,0.00,,,-99.99,,2013-03-17 23:30:00,
2013-03-17 23:53:00,35.0,21.0,-100.00,SW,226,4.0,-999.0,56,0.00,,,-99.99,,2013-03-17 23:53:00,